Location: Quaker Farms
(41.4276°N, 73.1557°W)
Time: 21:57:52
(UTC+00:00)

Vanguard 1 - Pass Details

Date: 15 June 2021
Orbit: 651 x 3832 km, 34.2° (Epoch: 25 July)

Event Time Altitude Azimuth Distance (km) Brightness Sun altitude
Rises 07:38:48 0° 275° (W) 6,674 14.0 -14.7°
Reaches altitude 10° 07:44:07 10° 271° (W) 5,143 13.4 -14.1°
Maximum altitude 07:56:21 45° 205° (SSW) 2,018 11.2 -12.6°
Drops below altitude 10° 08:03:13 10° 134° (SE) 2,933 12.5 -11.7°
Sets 08:05:27 0° 127° (SE) 3,641 13.1 -11.4°
